TimeCDT,TemperatureF,Dew PointF,Humidity,Sea Level PressureIn,VisibilityMPH,Wind Direction,Wind SpeedMPH,Gust SpeedMPH,PrecipitationIn,Events,Conditions,WindDirDegrees,DateUTC
12:55 AM,72.3,67.6,85,29.76,10.0,South,18.4,-,N/A,,Clear,170,2012-10-24 05:55:00
1:55 AM,71.1,67.3,88,29.76,10.0,South,18.4,-,N/A,,Clear,170,2012-10-24 06:55:00
2:55 AM,70.2,66.9,89,29.75,10.0,South,18.4,-,N/A,,Clear,170,2012-10-24 07:55:00
3:55 AM,69.3,66.9,92,29.75,10.0,South,18.4,-,N/A,,Clear,170,2012-10-24 08:55:00
4:55 AM,68.4,66.9,95,29.75,10.0,South,16.1,-,N/A,,Clear,170,2012-10-24 09:55:00
5:55 AM,67.6,67.3,99,29.76,10.0,SSE,15.0,23.0,N/A,,Clear,160,2012-10-24 10:55:00
6:55 AM,66.9,66.9,100,29.77,10.0,SSE,15.0,-,N/A,,Clear,160,2012-10-24 11:55:00
7:55 AM,66.6,66.6,100,29.77,10.0,SSE,15.0,-,N/A,,Scattered Clouds,160,2012-10-24 12:55:00
8:01 AM,66.2,66.2,100,29.77,10.0,SSE,15.0,-,N/A,,Mostly Cloudy,160,2012-10-24 13:01:00
8:21 AM,66.2,66.2,100,29.77,10.0,SSE,16.1,-,N/A,,Overcast,160,2012-10-24 13:21:00
8:55 AM,67.6,67.6,100,29.78,10.0,SSE,19.6,-,N/A,,Overcast,160,2012-10-24 13:55:00
9:17 AM,68.0,68.0,100,29.78,10.0,SSE,18.4,-,N/A,,Overcast,160,2012-10-24 14:17:00
9:55 AM,69.3,69.3,100,29.78,10.0,South,17.3,-,N/A,,Overcast,170,2012-10-24 14:55:00
10:19 AM,69.8,68.0,94,29.77,10.0,South,19.6,29.9,N/A,,Overcast,170,2012-10-24 15:19:00
10:55 AM,71.1,68.5,92,29.77,10.0,South,23.0,-,N/A,,Overcast,170,2012-10-24 15:55:00
11:43 AM,73.4,68.0,83,29.77,10.0,South,23.0,-,N/A,,Overcast,170,2012-10-24 16:43:00
11:55 AM,73.2,68.2,84,29.77,10.0,South,20.7,-,N/A,,Overcast,170,2012-10-24 16:55:00
12:25 PM,77.0,68.0,74,29.76,10.0,South,23.0,-,N/A,,Scattered Clouds,180,2012-10-24 17:25:00
12:46 PM,78.8,68.0,69,29.77,10.0,South,25.3,33.4,N/A,,Mostly Cloudy,190,2012-10-24 17:46:00
12:55 PM,79.0,68.2,69,29.75,10.0,South,23.0,33.4,N/A,,Scattered Clouds,180,2012-10-24 17:55:00
1:55 PM,81.9,67.3,61,29.71,10.0,South,27.6,32.2,N/A,,Clear,180,2012-10-24 18:55:00
2:55 PM,80.2,67.6,65,29.71,10.0,South,25.3,29.9,N/A,,Scattered Clouds,180,2012-10-24 19:55:00
4:55 PM,78.6,66.6,66,29.69,10.0,South,24.2,31.1,N/A,,Clear,180,2012-10-24 21:55:00
5:55 PM,76.8,66.4,70,29.69,10.0,South,24.2,32.2,N/A,,Mostly Cloudy,170,2012-10-24 22:55:00
6:07 PM,75.2,66.2,73,29.70,10.0,South,20.7,28.8,N/A,,Mostly Cloudy,170,2012-10-24 23:07:00
6:55 PM,73.9,66.0,76,29.69,10.0,SSE,19.6,25.3,N/A,,Mostly Cloudy,160,2012-10-24 23:55:00
7:05 PM,73.4,66.2,78,29.70,10.0,South,18.4,32.2,N/A,,Overcast,170,2012-10-25 00:05:00
7:55 PM,72.3,66.0,80,29.70,10.0,South,23.0,-,N/A,,Overcast,170,2012-10-25 00:55:00
8:55 PM,71.8,65.8,81,29.70,10.0,South,19.6,29.9,N/A,,Overcast,170,2012-10-25 01:55:00
9:55 PM,72.1,65.5,79,29.68,10.0,SSE,25.3,32.2,N/A,,Overcast,160,2012-10-25 02:55:00
10:03 PM,71.6,66.2,83,29.68,10.0,South,20.7,31.1,N/A,,Overcast,170,2012-10-25 03:03:00
10:17 PM,71.6,66.2,83,29.67,10.0,SSE,21.9,29.9,N/A,,Overcast,160,2012-10-25 03:17:00
10:27 PM,71.6,66.2,83,29.67,10.0,SSE,20.7,31.1,N/A,,Overcast,160,2012-10-25 03:27:00
10:55 PM,71.2,66.4,85,29.66,10.0,SSE,21.9,26.5,N/A,,Mostly Cloudy,160,2012-10-25 03:55:00
11:55 PM,70.5,65.3,83,29.65,10.0,SSE,21.9,27.6,N/A,,Scattered Clouds,160,2012-10-25 04:55:00